EST,Max TemperatureF,Mean TemperatureF,Min TemperatureF,Max Dew PointF,MeanDew PointF,Min DewpointF,Max Humidity, Mean Humidity, Min Humidity, Max Sea Level PressureIn, Mean Sea Level PressureIn, Min Sea Level PressureIn, Max VisibilityMiles, Mean VisibilityMiles, Min VisibilityMiles, Max Wind SpeedMPH, Mean Wind SpeedMPH, Max Gust SpeedMPH,PrecipitationIn, CloudCover, Events, WindDirDegrees
2012-11-1,53,46,39,32,26,16,75,51,24,29.93,29.89,29.85,10.0,10.0,10.0,17,7,25,0.00,5,,271
2012-11-2,59,49,37,34,30,27,81,52,31,30.06,29.94,29.87,10.0,10.0,10.0,13,2,21,0.00,4,,301
2012-11-3,59,46,32,37,31,27,100,66,31,30.16,30.06,29.97,10.0,8.9,0.2,9,2,,0.00,4,,90
2012-11-4,46,44,39,39,38,32,93,80,70,30.10,30.06,30.00,10.0,10.0,7.0,7,2,,0.00,7,,350
2012-11-5,55,44,32,37,31,27,100,76,33,30.14,30.07,30.01,10.0,6.9,0.2,8,1,,0.00,2,,110
2012-11-6,48,40,32,41,34,30,100,79,54,30.03,29.97,29.91,10.0,9.6,5.0,7,3,,0.00,7,,94
2012-11-7,44,40,37,41,39,36,100,90,76,30.06,29.94,29.86,10.0,6.8,0.8,7,1,,0.00,7,,303
2012-11-8,55,44,32,36,32,27,100,78,35,30.23,30.16,30.07,10.0,6.6,0.2,9,2,,0.00,3,,289
2012-11-9,62,46,30,37,32,30,100,73,32,30.32,30.24,30.20,10.0,6.5,0.2,9,2,,0.00,3,,129
2012-11-10,69,50,32,37,34,30,100,62,24,30.36,30.29,30.24,10.0,9.2,4.0,9,2,,0.00,0,,101
2012-11-11,69,52,35,45,36,30,93,53,23,30.38,30.29,30.24,10.0,10.0,10.0,9,2,16,0.00,0,,147
2012-11-12,68,52,35,52,44,32,93,68,46,30.41,30.23,30.11,10.0,9.4,3.0,17,4,30,0.00,4,,209
2012-11-13,46,38,30,32,28,23,100,76,43,30.46,30.42,30.38,10.0,9.1,0.2,9,1,,0.00,2,,46
2012-11-14,50,38,26,32,29,25,100,78,37,30.42,30.36,30.28,10.0,8.7,0.2,8,0,,0.00,1,,47
2012-11-15,57,44,30,34,30,27,100,72,31,30.32,30.27,30.22,10.0,8.4,0.2,8,2,16,0.00,1,,29
2012-11-16,55,42,28,32,29,23,100,68,29,30.40,30.34,30.30,10.0,9.1,0.2,9,2,,0.00,0,,49
2012-11-17,62,46,30,32,28,19,93,63,20,30.48,30.41,30.37,10.0,9.6,5.0,9,3,22,0.00,0,,82
2012-11-18,62,46,30,32,29,19,100,62,25,30.46,30.40,30.33,10.0,10.0,10.0,7,2,,0.00,0,,110
2012-11-19,64,47,30,37,33,30,100,70,30,30.37,30.29,30.20,10.0,9.2,1.0,9,3,,0.00,0,,123
2012-11-20,64,50,35,37,34,30,100,59,30,30.21,30.14,30.07,10.0,9.9,7.0,9,1,,0.00,3,,187
2012-11-21,64,50,37,39,36,32,100,63,30,30.22,30.17,30.11,10.0,9.4,0.2,10,2,17,0.00,1,,54
2012-11-22,66,49,32,37,34,32,100,69,28,30.27,30.21,30.14,10.0,8.7,0.2,9,1,,0.00,1,,111
2012-11-23,51,42,33,46,35,28,100,78,53,30.15,30.09,30.02,10.0,9.4,3.0,15,3,22,0.00,2,,281
2012-11-24,39,32,26,27,22,19,86,63,48,30.18,30.14,30.10,10.0,10.0,10.0,12,6,18,0.00,4,,299
2012-11-25,51,37,23,27,21,16,100,64,24,30.14,30.07,29.99,10.0,9.7,7.0,5,0,,0.00,0,,163
2012-11-26,53,40,28,39,27,23,93,63,30,30.20,30.14,30.08,10.0,10.0,10.0,7,1,,0.00,6,,80
2012-11-27,42,38,35,41,37,32,100,88,76,30.29,30.20,30.11,10.0,7.7,0.2,8,1,,0.00,8,,359
2012-11-28,46,37,28,32,27,19,93,70,37,30.42,30.36,30.26,10.0,10.0,10.0,9,2,,0.00,3,,263
2012-11-29,55,40,24,30,27,23,100,72,30,30.42,30.36,30.29,10.0,9.3,7.0,7,1,,0.00,0,,127
2012-11-30,59,44,30,37,34,28,100,74,39,30.36,30.29,30.22,10.0,9.7,7.0,9,2,,0.00,1,,154